Date,TemperatureHighF,TemperatureAvgF,TemperatureLowF,DewpointHighF,DewpointAvgF,DewpointLowF,HumidityHigh,HumidityAvg,HumidityLow,PressureMaxIn,PressureMinIn,WindSpeedMaxMPH,WindSpeedAvgMPH,GustSpeedMaxMPH,PrecipitationSumIn
2012-1-1,54,43,32,47,33,17,96,70,41,30.21,29.71,8,5,22,0.01
2012-1-2,32,25,19,23,18,12,92,77,62,30.38,30.13,6,3,16,0.01
2012-1-3,28,20,14,15,12,10,86,71,54,30.51,30.26,3,1,9,0.00
2012-1-4,42,34,25,31,22,14,80,62,54,30.25,30.01,5,3,14,0.00
2012-1-5,53,41,30,36,32,27,91,70,51,30.14,29.92,6,2,15,0.00
2012-1-6,60,51,43,46,36,33,74,58,45,29.92,29.78,6,4,18,0.00
2012-1-7,54,43,36,47,34,31,87,71,48,30.20,29.78,5,1,13,0.00
2012-1-8,45,38,30,31,29,26,92,71,47,30.34,30.20,6,1,15,0.00
2012-1-9,51,41,34,31,27,25,74,59,37,30.27,30.09,3,1,7,0.00
2012-1-10,57,44,35,34,31,27,75,60,39,30.11,29.85,5,1,10,0.00
2012-1-11,44,42,39,43,39,31,99,92,63,29.84,29.42,6,3,15,0.96
2012-1-12,42,29,14,42,27,11,99,93,79,29.76,29.48,6,3,18,0.08
2012-1-13,19,16,14,15,13,10,91,87,82,30.17,29.76,6,3,21,0.00
2012-1-14,27,20,13,23,17,11,94,88,73,30.30,30.10,2,0,7,0.00
2012-1-15,36,25,16,26,21,15,95,84,64,30.48,30.23,6,2,14,0.01
2012-1-16,57,46,29,54,41,25,97,82,65,30.23,29.83,6,4,20,0.01
2012-1-17,57,44,27,56,43,24,98,93,87,30.20,29.62,9,5,25,1.51
2012-1-18,33,26,21,24,19,16,87,76,56,30.34,30.07,3,1,9,0.03
2012-1-19,35,28,16,28,23,12,86,80,73,30.17,29.94,5,2,12,0.00
2012-1-20,30,22,14,29,17,9,97,83,76,30.20,29.90,8,3,17,0.00
2012-1-21,29,24,22,28,23,21,97,96,94,30.22,29.91,3,0,9,0.00
2012-1-22,55,34,24,55,34,23,99,99,97,30.18,29.66,7,3,19,0.02
2012-1-23,56,44,37,56,41,32,99,89,80,30.01,29.55,8,4,28,0.47
2012-1-24,37,32,30,32,28,26,96,87,82,30.38,30.01,3,1,8,0.01
2012-1-25,35,31,28,33,29,25,99,93,86,30.38,30.05,6,2,15,0.01
2012-1-26,41,37,34,41,37,34,99,99,99,30.07,29.60,6,2,15,0.41
2012-1-27,38,35,33,35,33,31,99,92,78,30.06,29.65,4,1,10,0.03
2012-1-28,38,34,32,34,27,19,100,75,48,30.30,29.94,6,2,18,0.04
2012-1-29,43,35,29,27,23,19,71,61,49,30.30,30.15,7,3,22,0.01
2012-1-30,57,44,28,37,30,20,83,60,42,30.29,30.08,7,3,21,0.00
2012-1-31,55,53,50,53,41,31,97,66,43,30.09,29.97,6,4,19,0.06
2012-2-1,62,54,46,53,47,39,99,78,47,30.09,29.97,6,1,19,0.07
2012-2-2,53,43,35,42,38,34,99,83,55,30.37,30.09,1,0,6,0.01
2012-2-3,54,46,37,41,38,35,91,74,52,30.41,30.23,6,2,13,0.01
2012-2-4,48,41,39,40,39,37,99,94,65,30.24,30.03,10,3,18,0.55
2012-2-5,48,40,37,39,34,27,99,82,50,30.27,30.08,4,0,11,0.08
2012-2-6,47,40,33,34,31,28,89,72,55,30.26,30.17,4,1,9,0.00
2012-2-7,42,34,30,33,30,28,98,87,67,30.29,30.19,1,0,7,0.00
2012-2-8,33,33,32,32,32,29,97,95,85,30.33,30.28,0,0,5,0.00
2012-2-9,33,33,33,32,32,32,97,97,97,30.33,30.33,0,0,3,0.00
2012-2-10,34,33,27,33,32,26,98,97,95,30.33,29.96,2,0,9,0.00
2012-2-11,27,19,15,26,13,10,95,79,66,30.44,30.03,4,2,13,0.00
2012-2-12,33,24,16,22,14,8,75,67,60,30.46,30.35,4,2,11,0.00
2012-2-13,35,29,22,27,17,14,92,63,45,30.34,29.98,5,1,15,0.00
2012-2-14,35,33,29,33,32,27,98,96,92,30.11,29.88,3,1,9,0.00
2012-2-15,42,38,32,41,36,31,99,94,83,30.19,30.03,6,2,14,0.15
2012-2-16,46,43,37,46,41,34,99,93,77,30.20,29.96,4,1,12,0.18
2012-2-17,51,41,33,36,32,27,98,72,43,30.24,30.10,3,0,9,0.01
2012-2-18,47,40,33,33,30,26,83,68,50,30.13,30.06,3,1,9,0.00
2012-2-19,40,33,27,26,24,22,82,70,53,30.21,30.04,3,1,13,0.00
2012-2-20,47,35,24,29,24,21,88,68,42,30.33,30.01,6,3,17,0.00
2012-2-21,47,43,38,42,37,28,96,80,66,30.01,29.75,7,4,22,0.04
2012-2-22,56,48,39,39,36,34,89,66,44,29.86,29.44,6,2,18,0.04
2012-2-23,58,50,41,49,40,36,92,71,51,29.57,29.29,9,2,24,0.00
2012-2-24,56,40,31,48,34,23,89,77,67,30.02,29.34,8,4,20,0.00
2012-2-25,35,30,26,25,20,17,86,68,54,30.38,30.02,5,2,17,0.00
2012-2-26,54,38,24,27,23,18,84,57,31,30.39,30.17,6,3,17,0.00
2012-2-27,53,46,35,33,27,23,64,48,36,30.46,30.18,6,2,13,0.00
2012-2-28,59,44,31,43,31,24,80,61,44,30.46,29.89,7,3,18,0.00
2012-2-29,66,60,49,62,48,32,97,66,36,29.91,29.56,11,5,25,0.16
2012-3-1,55,46,36,37,33,30,79,63,49,29.90,29.73,6,2,16,0.01
2012-3-2,69,50,37,62,43,32,93,78,65,29.76,29.26,9,4,24,0.09
2012-3-3,41,35,31,32,28,23,93,77,59,29.92,29.72,6,3,18,0.03
2012-3-4,41,33,27,31,25,21,96,73,46,29.93,29.87,5,1,12,0.00
2012-3-5,37,30,24,31,25,22,97,81,59,30.45,29.90,3,1,9,0.07
2012-3-6,67,48,29,39,30,23,84,54,31,30.42,30.15,7,4,24,0.01
2012-3-7,67,61,55,52,41,28,66,49,31,30.23,30.02,8,6,26,0.00
2012-3-8,65,50,36,56,45,29,97,83,65,30.30,29.91,8,3,26,0.64
2012-3-9,47,40,34,30,24,18,81,57,33,30.52,30.30,5,2,12,0.01
2012-3-10,58,42,29,30,24,19,70,52,33,30.54,30.35,5,2,14,0.00
2012-3-11,67,54,40,43,34,-100,64,49,36,30.36,30.15,6,2,12,0.00
2012-3-12,70,61,54,62,57,43,96,86,53,30.15,29.87,6,4,22,0.12
2012-3-13,75,66,58,61,57,54,99,75,49,30.10,29.94,5,2,18,0.02
2012-3-14,79,69,59,62,58,52,83,67,50,30.13,30.02,5,1,13,0.00
2012-3-15,77,67,60,65,61,56,94,83,60,30.10,30.00,10,2,23,0.04
2012-3-16,75,64,57,62,58,54,94,81,61,30.13,30.04,5,2,14,0.01
2012-3-17,77,65,56,65,60,55,99,85,66,30.12,30.01,4,1,11,0.01
2012-3-18,80,69,60,66,61,58,95,79,56,30.12,30.00,4,2,11,0.03
2012-3-19,82,73,66,64,60,55,79,66,52,30.07,29.95,6,2,14,0.00
2012-3-20,84,74,67,63,57,-100,69,57,47,30.07,29.95,6,2,18,0.00
2012-3-21,85,75,67,62,59,58,74,59,44,30.11,29.99,6,2,17,0.00
2012-3-22,79,69,64,65,58,-100,94,70,52,30.08,29.98,5,-6,13,0.13
2012-3-23,72,63,57,64,60,55,99,89,70,30.01,29.74,6,1,15,0.62
2012-3-24,67,57,49,56,50,47,98,80,50,29.86,29.77,3,0,8,0.37
2012-3-25,69,60,54,59,55,52,97,84,67,30.03,29.86,1,0,4,0.00
2012-3-26,62,56,48,56,43,35,88,64,40,30.23,30.02,6,1,17,0.00
2012-3-27,71,54,38,47,37,29,73,56,37,30.24,29.96,7,4,17,0.00
2012-3-28,77,69,64,61,50,40,79,55,28,29.97,29.88,6,2,16,0.00
2012-3-29,69,58,47,49,43,38,80,58,40,30.05,29.93,9,2,17,0.02
2012-3-30,79,64,52,63,53,45,84,69,51,29.93,29.64,7,4,19,0.02
2012-3-31,66,57,49,59,51,47,94,81,59,29.88,29.76,5,1,11,0.01
2012-4-1,79,60,47,66,55,45,99,85,63,29.87,29.64,6,2,15,0.45
2012-4-2,71,64,56,64,55,49,95,75,59,29.87,29.65,7,4,21,0.05
2012-4-3,84,70,58,65,56,44,70,61,44,29.90,29.75,6,2,10,0.00
2012-4-4,72,63,58,63,58,50,95,83,70,29.79,29.71,4,0,11,0.01
2012-4-5,60,53,44,52,40,35,96,64,42,29.99,29.75,9,3,19,0.01
2012-4-6,61,49,36,39,34,30,82,59,39,30.20,29.99,5,1,17,0.00
2012-4-7,68,56,41,38,35,29,64,46,29,30.30,30.15,5,2,13,0.00
2012-4-8,65,59,51,47,36,27,80,45,24,30.25,30.13,2,0,9,0.00
2012-4-9,66,57,48,41,32,26,59,40,24,30.13,29.94,4,1,13,0.00
2012-4-10,55,48,41,33,28,22,62,47,30,30.08,29.97,3,1,10,0.00
2012-4-11,54,42,30,32,28,25,85,59,42,30.25,30.08,1,0,7,0.00
2012-4-12,61,51,39,35,32,27,69,48,35,30.31,30.14,2,0,10,0.00
2012-4-13,64,56,43,42,37,30,65,49,36,30.21,30.09,6,1,22,0.00
2012-4-14,67,57,50,62,52,40,99,84,56,30.11,29.90,3,1,11,0.21
2012-4-15,75,70,65,62,57,-100,80,66,54,29.94,29.85,0,0,5,0.23
2012-4-16,75,75,75,57,57,57,54,54,54,29.87,29.87,0,0,0,0.23
2012-4-17,75,75,75,57,57,57,54,54,54,29.87,29.87,0,0,0,0.23
2012-4-18,75,75,75,57,57,57,54,54,54,29.87,29.87,0,0,0,0.23
2012-4-19,75,75,75,57,57,57,54,54,54,29.87,29.87,0,0,0,0.23
2012-4-20,75,75,75,57,57,57,54,54,54,29.87,29.87,0,0,0,0.23
2012-4-21,75,75,75,57,57,57,54,54,54,29.87,29.87,0,0,0,0.23
2012-4-22,75,75,75,57,57,57,54,54,54,29.87,29.87,0,0,0,0.23
2012-4-23,75,75,75,57,57,57,54,54,54,29.87,29.87,0,0,0,0.23
2012-4-24,75,75,75,57,57,57,54,54,54,29.87,29.87,0,0,0,0.23
2012-4-25,75,75,75,57,57,57,54,54,54,29.87,29.87,0,0,0,0.23
2012-4-26,75,75,75,57,57,57,54,54,54,29.87,29.87,0,0,0,0.23
2012-5-6,-200,0,200,-100,-100,-100,86,86,86,29.93,29.93,1,1,6,0.00
2012-5-12,64,63,63,55,55,55,75,74,73,30.15,30.15,0,0,1,0.00
2012-5-13,71,63,59,60,56,-100,91,78,59,30.15,30.00,6,1,17,0.00
2012-5-14,77,67,59,60,57,54,96,72,47,30.05,29.95,4,0,11,0.00
2012-5-15,81,70,55,57,48,43,80,47,27,30.00,29.91,0,0,6,0.00
2012-5-16,78,69,61,62,52,45,65,54,43,30.00,29.90,1,0,5,0.00
2012-5-17,75,63,51,48,43,39,71,49,33,30.09,30.00,5,1,14,0.00
2012-5-18,83,68,53,62,52,42,70,58,43,30.08,29.97,4,1,11,0.00
2012-5-19,89,75,63,68,60,54,76,60,42,30.07,29.99,2,0,8,0.00
2012-5-20,90,77,67,68,62,-100,85,64,42,30.09,29.94,1,0,6,0.00
2012-5-21,76,66,58,66,61,50,98,83,65,30.04,29.95,1,0,5,0.00
2012-5-22,75,61,49,57,52,47,95,73,51,30.01,29.87,0,0,5,0.00
2012-5-23,82,70,57,58,53,-100,71,56,41,29.89,29.79,2,0,8,0.00
2012-5-24,85,74,61,62,56,-100,92,60,38,29.86,29.72,4,1,14,0.00
2012-5-25,87,78,72,73,67,59,78,70,60,30.01,29.79,2,0,8,0.00
2012-5-26,92,81,72,71,64,-100,82,64,45,30.08,29.98,2,0,13,0.00
2012-5-27,92,81,72,71,67,-100,84,66,47,30.02,29.90,2,0,8,0.00
2012-5-28,90,81,73,71,68,66,82,66,51,29.92,29.77,2,0,9,0.00
2012-5-29,79,73,67,70,65,-100,97,81,67,29.86,29.73,3,0,8,0.31
2012-5-30,76,69,61,60,54,47,82,61,43,29.89,29.81,0,0,5,0.01
2012-5-31,77,63,54,63,55,47,98,76,49,29.87,29.64,5,1,13,0.12
2012-6-1,62,58,51,61,55,48,98,93,79,29.86,29.67,0,0,5,0.03
2012-6-2,67,58,49,56,51,47,94,79,56,29.91,29.82,2,0,10,0.00
2012-6-3,78,66,57,61,55,-100,89,70,47,29.89,29.80,0,0,4,0.00
2012-6-4,69,64,61,63,59,53,98,84,59,29.86,29.76,0,0,3,0.06
2012-6-5,73,64,56,60,54,51,97,73,53,29.93,29.80,2,0,9,0.01
2012-6-6,74,63,51,55,51,47,90,67,44,30.02,29.93,4,0,14,0.00
2012-6-7,81,71,59,59,51,46,66,51,36,30.09,30.01,2,0,11,0.00
2012-6-8,84,74,62,59,53,49,70,49,33,30.08,29.94,2,0,6,0.00
2012-6-9,87,76,66,65,57,51,70,53,33,29.99,29.88,1,0,7,0.00
2012-6-10,88,77,67,67,62,-100,82,64,48,29.97,29.89,4,1,13,0.00
2012-6-11,80,73,68,72,68,65,93,84,74,29.91,29.77,4,0,14,0.00
2012-6-12,80,71,63,67,58,47,98,68,34,30.02,29.85,0,0,5,0.00
2012-6-13,80,68,55,59,53,47,77,59,42,30.10,30.02,4,0,10,0.00
2012-6-14,85,71,58,55,52,49,77,54,30,30.10,30.01,4,1,10,0.00
2012-6-15,91,76,63,60,55,51,68,50,27,30.08,30.00,3,1,10,0.00
2012-6-16,91,80,69,72,66,57,83,64,43,30.10,29.94,1,0,9,0.00
2012-6-17,84,77,72,72,68,-100,90,76,62,29.97,29.83,1,0,7,0.01
2012-6-18,89,79,70,70,67,64,95,69,47,29.90,29.83,3,0,13,0.23
2012-6-19,90,82,71,69,66,63,79,61,43,30.05,29.90,2,0,9,0.00
2012-6-20,91,81,71,69,65,61,76,60,39,30.10,29.95,2,0,10,0.00
2012-6-21,90,79,71,69,61,-100,81,61,40,29.99,29.85,2,0,9,0.00
2012-6-22,83,71,65,68,65,60,98,83,46,29.95,29.91,0,0,5,0.00
2012-6-25,81,75,68,52,48,46,51,40,32,29.91,29.85,0,0,6,0.00
2012-6-26,82,71,59,50,48,46,64,46,30,30.00,29.90,6,1,15,0.00
2012-6-27,92,77,62,56,53,49,79,46,27,30.01,29.86,3,0,9,0.00
2012-6-28,101,86,73,69,60,54,54,43,29,29.89,29.78,2,0,9,0.00
2012-6-29,102,87,78,77,68,60,70,54,29,29.85,29.74,2,0,8,0.00
2012-6-30,97,86,73,72,69,66,83,59,40,29.84,29.74,6,1,13,0.00
2012-7-1,100,85,69,73,68,64,94,60,31,29.97,29.82,3,0,12,0.06
2012-7-2,97,82,68,72,68,65,97,66,35,29.99,29.88,1,0,6,0.06
2012-7-3,94,82,71,71,68,63,87,62,43,29.98,29.83,2,0,7,0.01
2012-7-4,99,86,75,75,70,68,83,62,38,29.91,29.83,1,0,5,0.00
2012-7-5,102,89,77,74,68,63,82,54,29,29.93,29.85,0,0,5,0.00
2012-7-6,103,90,79,73,70,66,76,54,34,29.93,29.85,1,0,7,0.00
2012-7-7,103,91,80,75,70,67,76,53,35,29.93,29.83,3,0,9,0.02
2012-7-8,96,78,69,78,71,65,97,81,48,29.99,29.85,5,0,18,1.95
2012-7-9,90,77,68,70,66,64,99,73,45,30.01,29.92,5,1,13,0.02
2012-7-10,93,80,70,65,61,56,77,54,32,30.00,29.92,3,0,9,0.01
2012-7-11,94,80,68,65,61,58,79,54,33,30.04,29.96,4,0,10,0.00
2012-7-12,93,80,69,70,63,56,79,57,36,30.03,29.97,4,1,14,0.00
2012-7-13,88,78,68,70,68,66,98,75,49,30.05,29.96,4,1,11,0.00
2012-7-14,82,75,72,74,71,68,98,88,74,30.08,29.99,2,0,7,0.15
2012-7-15,89,79,71,74,72,70,98,81,56,30.10,29.97,1,0,8,0.01
2012-7-16,92,82,73,75,72,71,93,74,52,30.03,29.86,1,0,6,0.00
2012-7-17,95,84,76,77,73,71,88,72,49,29.90,29.81,1,0,9,0.00
2012-7-18,96,83,77,78,73,69,89,74,43,29.92,29.82,2,0,10,0.00
2012-7-19,95,80,72,77,73,69,96,82,53,29.91,29.75,2,0,8,0.02
2012-7-20,81,74,69,73,70,65,98,89,75,30.00,29.81,0,0,9,0.01
2012-7-21,90,75,63,65,62,57,96,67,35,30.08,29.99,3,0,11,0.01
2012-7-22,95,81,69,67,64,60,84,59,38,30.11,30.00,3,0,10,0.00
2012-7-23,97,85,73,75,69,59,90,62,43,30.06,29.92,2,0,10,0.00
2012-7-24,98,87,79,75,73,71,77,64,45,29.94,29.81,2,0,10,0.00
2012-7-25,100,86,73,77,72,69,91,65,39,29.87,29.70,2,1,8,0.00
2012-7-26,92,85,79,75,71,68,78,64,47,29.74,29.66,3,1,15,0.00
2012-7-27,92,78,70,73,69,62,97,77,43,29.90,29.74,4,0,16,0.12
2012-7-28,86,75,65,67,64,61,93,69,45,30.04,29.90,0,0,5,0.01
2012-7-29,87,77,66,65,62,59,81,63,44,30.07,29.95,2,0,9,0.00
2012-7-30,90,80,68,69,65,59,84,62,44,29.97,29.86,4,1,13,0.00
2012-7-31,93,80,70,70,67,65,93,68,47,29.91,29.79,3,0,10,0.03
2012-8-1,93,81,68,69,64,57,93,60,30,29.89,29.81,2,0,9,0.03
2012-8-2,98,83,68,65,59,54,69,46,24,29.86,29.74,3,1,11,0.00
2012-8-3,86,75,68,74,71,63,97,86,54,29.88,29.77,5,1,13,0.12
2012-8-4,94,82,72,79,74,70,98,80,56,29.92,29.81,2,1,12,0.00
2012-8-5,90,79,74,75,70,58,94,76,38,30.07,29.88,3,0,11,0.00
2012-8-6,90,78,67,63,61,57,82,58,35,30.11,29.96,4,0,10,0.00
2012-8-7,95,81,69,64,59,52,79,50,24,29.97,29.88,1,0,8,0.00
2012-8-8,97,84,73,67,60,55,80,46,30,29.94,29.83,2,0,8,0.00
2012-8-9,89,76,65,69,65,62,96,72,41,29.91,29.69,4,1,10,0.13
2012-8-10,76,67,62,67,62,53,99,85,61,29.90,29.69,0,0,5,0.42
2012-8-11,79,67,55,58,53,49,96,65,37,29.98,29.90,1,0,7,0.03
2012-8-12,83,72,63,57,52,-100,70,51,32,30.02,29.95,1,0,6,0.00
2012-8-13,80,70,63,65,61,54,90,74,55,29.96,29.85,5,1,11,0.03
2012-8-14,77,70,66,65,64,61,97,82,62,29.92,29.84,0,0,3,0.01
2012-8-15,86,74,62,64,60,58,91,65,42,29.98,29.89,1,0,5,0.00
2012-8-16,86,74,66,68,63,58,98,71,54,29.95,29.77,6,1,22,2.74
2012-8-17,78,69,62,66,61,56,99,78,48,29.96,29.86,0,0,6,2.74
2012-8-18,81,68,57,57,54,50,92,65,37,29.99,29.88,3,0,10,0.01
2012-8-19,64,64,64,57,56,55,78,74,73,29.90,29.90,0,0,0,0.00
2012-8-20,81,68,57,58,55,52,88,66,41,29.96,29.90,1,0,5,0.00
2012-8-21,82,69,59,62,57,53,90,68,40,30.06,29.96,3,0,8,0.00
2012-8-22,86,73,60,61,57,53,92,60,35,30.11,30.02,3,0,9,0.00
2012-8-23,90,78,63,63,58,54,84,53,30,30.09,30.00,4,0,10,0.00
2012-8-24,92,80,67,67,62,56,74,55,37,30.05,29.94,4,1,10,0.00
2012-8-25,84,84,84,64,64,64,51,51,51,29.95,29.95,0,0,1,0.00
2012-8-26,84,84,84,64,64,64,51,51,51,29.95,29.95,0,0,1,0.00
2012-8-27,84,77,71,76,70,64,99,82,51,30.01,29.93,0,0,4,0.61
2012-8-28,85,74,65,66,61,58,84,64,43,30.06,29.97,1,0,9,0.12
2012-8-29,86,74,64,66,62,59,87,67,48,30.05,29.95,2,0,9,0.00
2012-8-30,89,76,63,63,60,58,85,62,38,30.06,29.96,5,1,13,0.00
2012-8-31,86,78,73,75,72,62,93,82,58,30.11,29.99,3,0,11,0.00
2012-9-1,83,77,73,76,73,71,96,88,79,30.02,29.86,4,1,11,0.01
2012-9-2,76,73,71,74,72,70,99,97,88,29.88,29.73,5,2,15,2.10
2012-9-3,78,74,72,75,72,71,99,96,90,29.84,29.75,3,0,9,0.15
2012-9-4,88,77,71,76,73,70,99,87,63,29.87,29.81,0,0,7,0.03
2012-9-14,58,57,57,53,52,51,84,82,79,30.27,30.26,0,0,0,0.00
2012-9-15,75,63,53,58,51,47,87,67,49,30.31,30.14,4,0,14,0.00
2012-9-16,77,69,57,55,53,49,83,58,43,30.15,30.03,4,0,9,0.00
2012-9-17,77,72,66,67,59,53,98,67,43,30.03,29.72,2,0,9,0.58
2012-9-18,66,60,48,65,52,41,98,79,48,30.03,29.65,2,0,8,0.27
2012-9-19,68,57,47,45,42,36,87,58,39,30.16,30.03,2,0,8,0.00
2012-9-20,65,59,53,60,52,43,92,77,62,30.04,29.91,1,0,8,0.02
2012-9-21,72,63,55,63,54,42,95,74,52,29.98,29.68,4,1,16,0.11
2012-9-22,65,56,45,60,49,34,98,79,37,30.16,29.74,3,0,8,0.16
2012-9-23,58,47,42,46,39,-100,91,78,57,30.26,30.16,0,0,3,0.00
2012-9-24,67,56,45,45,40,36,82,58,37,30.25,30.03,1,0,8,0.00
2012-9-25,70,61,53,65,55,42,97,82,58,30.03,29.86,3,1,12,0.39
2012-9-26,69,65,61,67,63,60,98,95,88,30.05,29.92,6,1,19,0.67
2012-9-27,73,66,63,67,63,62,98,92,77,30.11,30.03,1,0,7,0.47
2012-9-28,71,63,55,63,57,-100,97,85,57,30.08,30.02,0,0,4,0.02
2012-9-29,72,60,52,60,54,48,96,82,57,30.07,29.95,0,0,4,0.00
2012-9-30,70,61,55,56,51,48,86,71,47,29.96,29.82,1,0,7,0.00
2012-10-1,59,54,51,55,51,46,97,87,72,29.86,29.66,0,0,9,0.41
2012-10-2,60,56,53,59,55,52,97,96,95,29.87,29.64,1,0,6,0.32
2012-10-3,71,61,55,58,55,52,97,82,56,30.08,29.87,2,0,9,0.03
2012-10-4,76,65,56,62,57,52,86,74,59,30.17,30.08,2,0,12,0.00
2012-10-5,65,53,40,58,49,39,97,87,71,30.13,30.00,1,0,7,0.91
2012-10-6,52,43,35,41,38,34,97,84,58,30.19,30.09,0,0,5,0.66
2012-10-7,50,43,39,40,37,33,89,78,58,30.21,30.15,1,0,5,0.01
2012-10-8,56,46,38,39,35,31,92,66,43,30.25,30.12,3,0,8,0.00
2012-10-9,62,51,39,44,39,34,83,66,49,30.14,29.95,3,0,15,0.00
2012-10-10,53,48,42,46,35,-100,87,68,46,30.24,29.92,2,0,8,0.00
2012-10-11,59,49,40,40,35,31,71,58,44,30.29,30.17,2,0,9,0.00
2012-10-12,61,53,45,47,43,40,84,70,57,30.35,30.17,4,1,14,0.00
2012-10-13,71,59,47,65,53,40,86,80,72,30.29,29.95,3,2,12,0.00
2012-10-14,72,67,57,64,61,53,93,80,61,29.96,29.65,7,4,22,0.01
2012-10-15,61,53,45,53,44,39,94,72,45,29.97,29.80,3,0,9,0.01
2012-10-16,69,57,46,51,45,39,80,65,50,29.97,29.74,5,1,14,0.00
2012-10-17,70,63,55,56,52,49,90,68,55,29.74,29.43,6,2,21,0.02
2012-10-18,62,55,48,55,43,34,97,69,36,29.63,29.41,7,2,21,0.05
2012-10-19,55,48,46,46,42,37,96,81,51,29.72,29.53,3,1,15,0.19
2012-10-20,52,48,45,47,44,-100,97,89,78,29.98,29.72,1,0,8,0.03
2012-10-21,71,56,43,53,48,42,96,77,52,30.08,29.97,4,1,11,0.01
2012-10-22,77,69,61,61,55,51,73,63,51,30.05,29.91,5,1,15,0.00
2012-10-23,76,70,67,59,55,52,62,59,53,30.01,29.93,5,1,14,0.00
2012-10-24,79,70,61,63,56,52,76,62,47,30.04,29.95,4,1,12,0.00
2012-10-25,78,69,60,61,57,53,79,67,53,29.97,29.85,6,2,17,0.00
2012-10-26,70,46,42,59,43,37,95,88,65,30.20,29.88,4,1,10,0.23
2012-10-27,53,44,36,39,35,32,88,73,52,30.19,30.11,3,1,9,0.01
2012-10-28,50,42,36,37,34,30,90,73,54,30.15,30.09,3,1,9,0.00
2012-10-29,54,43,36,35,31,24,79,63,36,30.14,29.92,5,3,14,0.00
2012-10-30,43,41,38,36,33,31,79,73,66,29.92,29.70,6,3,15,0.00
2012-10-31,47,41,33,35,31,27,79,68,60,29.88,29.75,4,2,12,0.00
2012-11-1,54,42,31,34,27,20,78,56,29,29.95,29.86,4,1,10,0.00
2012-11-2,53,46,38,36,34,30,77,63,47,30.09,29.84,2,0,8,0.00
2012-11-3,42,39,36,39,36,32,96,89,68,30.15,30.07,4,1,12,0.29
2012-11-4,44,36,32,36,33,31,95,88,69,30.21,30.14,0,0,4,0.14
2012-11-5,48,40,31,35,31,28,91,72,53,30.18,30.08,4,1,10,0.02
2012-11-6,51,41,33,39,33,28,94,75,53,30.09,29.91,3,0,8,0.02
2012-11-7,46,42,39,41,39,37,97,92,82,30.15,29.88,1,0,10,0.05
2012-11-8,48,41,33,42,38,32,97,87,72,30.26,30.15,1,0,6,0.01
2012-11-9,62,50,37,46,41,35,92,73,52,30.21,30.05,5,2,13,0.01
2012-11-10,72,61,51,51,46,42,72,59,43,30.14,30.04,6,2,19,0.00
2012-11-11,67,62,55,53,48,44,83,61,55,30.13,29.93,8,4,24,0.06
2012-11-12,57,41,33,55,36,24,96,81,55,30.40,29.93,6,2,20,0.83
2012-11-13,43,35,29,27,25,22,84,68,50,30.53,30.40,2,0,6,0.01
2012-11-14,43,34,28,29,25,-100,82,71,55,30.54,30.39,5,0,13,0.00
2012-11-15,48,38,29,34,30,26,90,74,55,30.41,30.33,2,0,7,0.00
2012-11-16,52,41,32,34,32,29,89,72,45,30.48,30.38,6,1,13,0.00
2012-11-17,57,45,35,39,34,31,86,66,40,30.55,30.44,6,1,14,0.00
2012-11-18,61,50,39,37,33,30,70,54,37,30.44,30.34,5,2,10,0.00
2012-11-19,62,52,45,41,35,31,62,53,41,30.35,30.16,2,0,6,0.00
2012-11-20,59,54,50,46,41,35,77,61,50,30.16,30.03,2,0,6,0.00
2012-11-21,63,54,45,48,46,43,94,75,56,30.24,30.13,0,0,6,0.00
2012-11-22,64,55,46,48,44,43,89,68,47,30.18,29.98,5,2,17,0.02
2012-11-23,54,41,28,51,33,20,95,75,60,30.23,29.96,6,3,17,0.12
2012-11-24,31,26,21,22,20,17,87,79,68,30.31,30.12,3,0,7,0.01
2012-11-25,48,38,26,33,28,22,86,68,52,30.13,29.93,5,2,12,0.00
2012-11-26,48,42,35,33,31,29,81,66,52,30.27,30.05,5,1,11,0.00
2012-11-27,40,34,28,31,24,-100,92,75,60,30.39,30.26,1,0,9,0.00
2012-11-28,45,35,27,28,25,-100,85,69,50,30.46,30.33,2,0,7,0.00
2012-11-29,51,41,32,34,30,25,80,65,50,30.40,30.19,5,2,13,0.00
2012-11-30,58,50,44,42,36,30,76,59,51,30.19,30.10,6,2,14,0.00
2012-12-1,65,57,49,49,46,41,77,68,56,30.20,30.07,4,2,14,0.00
2012-12-2,61,59,55,59,52,-100,96,84,66,30.08,29.98,6,3,19,0.27
2012-12-3,70,64,60,61,58,-100,96,82,66,30.09,29.99,6,2,17,0.07
2012-12-4,65,56,43,58,51,40,96,84,65,30.21,29.98,6,2,16,0.13
2012-12-5,51,43,35,42,36,30,90,76,49,30.37,30.21,3,0,10,0.01
2012-12-6,50,39,31,45,33,-100,93,82,66,30.24,29.98,6,3,14,0.00
2012-12-7,53,49,47,52,48,45,97,96,91,29.98,29.81,2,0,7,0.23
2012-12-8,52,48,44,51,47,42,97,95,92,30.00,29.82,4,0,9,0.01
2012-12-9,58,50,44,57,49,42,97,96,94,29.99,29.68,8,2,16,0.52
2012-12-10,49,34,29,48,32,27,96,92,89,29.99,29.73,4,2,12,0.42
2012-12-11,36,31,27,27,25,23,92,81,64,30.25,29.99,3,1,8,0.00
2012-12-12,45,35,27,30,27,23,88,73,53,30.40,30.25,3,0,9,0.00
2012-12-13,51,38,29,30,26,24,85,64,38,30.42,30.25,3,1,11,0.00
2012-12-14,55,44,35,31,27,24,65,52,39,30.29,30.12,3,1,10,0.00
2012-12-15,56,48,42,53,42,29,95,80,53,30.12,29.74,6,3,18,0.16
2012-12-16,57,52,43,54,49,42,95,88,77,29.74,29.66,6,2,18,0.01
2012-12-17,45,42,38,44,41,37,97,96,94,29.71,29.56,3,0,9,0.15
2012-12-18,48,40,35,41,36,33,97,88,70,29.88,29.69,6,2,16,0.05
2012-12-19,46,40,33,41,36,31,93,85,75,30.07,29.81,10,3,21,0.00
2012-12-20,56,46,28,51,42,27,96,86,65,29.84,29.21,11,7,30,0.34
2012-12-21,29,25,21,26,21,-100,96,88,79,30.21,29.61,7,4,28,0.01
2012-12-22,36,25,15,23,19,13,93,78,57,30.32,30.07,3,1,8,0.01
2012-12-23,48,39,30,33,29,21,83,66,51,30.07,29.91,4,1,13,0.01
2012-12-24,40,35,31,38,32,27,97,90,83,30.05,29.79,5,1,12,0.03
2012-12-25,33,32,29,30,26,-100,96,86,83,30.21,29.99,5,1,16,0.01
2012-12-26,33,30,28,30,28,26,97,93,83,30.03,29.64,6,3,18,0.00
2012-12-27,33,30,28,30,25,-100,93,89,85,30.21,30.03,4,0,6,0.05
2012-12-28,33,30,29,30,26,-100,95,89,87,30.16,29.83,5,1,9,0.04
2012-12-29,31,27,0,30,19,-100,96,88,84,30.30,29.80,4,1,11,0.01
2012-12-30,32,23,14,24,19,13,94,86,71,30.49,30.30,4,1,9,0.02
2012-12-31,36,32,26,32,23,-100,97,83,76,30.34,30.08,6,2,15,0.01
2013-1-1,32,28,0,31,26,-100,97,93,90,30.20,30.06,1,0,4,0.01